Regional Weather Roundup
Issued by NWS Upton, NY

Home | Current Version | Previous Version | Text Only | Print | Product List | Glossary On
Versions: 1 2 3 4 5 6 7 8 9 10 11 12 13 14 15 16 17 18 19 20 21 22 23 24 25 26 27
000
ASUS41 KOKX 240009
RWROKX

REGIONAL WEATHER ROUNDUP
NATIONAL WEATHER SERVICE NEW YORK NY
800 PM EDT TUE MAY 23 2017

NOTE: "FAIR" INDICATES FEW OR NO CLOUDS BELOW 12,000 FEET WITH NO
SIGNIFICANT WEATHER AND/OR OBSTRUCTIONS TO VISIBILITY.

NYZ071-072-176-178-NJZ106-104-240100-
NEW YORK CITY METRO AREA

CITY           SKY/WX    TMP DP  RH WIND       PRES   REMARKS
Central Park   CLOUDY    65  48  54 CALM      29.86R
Wall St Helipt CLOUDY    64  49  57 CALM      29.84F
Bronx Bot Gard   N/A     64  48  55 NW1       29.83F
LaGuardia APRT CLOUDY    67  48  50 S7        29.83R
Kennedy INTL   CLOUDY    63  53  70 S3        29.85R
Breezy Point     N/A     57 N/A N/A S5          N/A
Newark/Liberty CLOUDY    66  49  54 S3        29.83R
Teterboro      CLOUDY    67  49  52 CALM      29.82R
$$

NYZ177-179-078>081-240100-
LONG ISLAND NEW YORK

CITY           SKY/WX    TMP DP  RH WIND       PRES   REMARKS
Jones Beach      N/A     59 N/A N/A S1          N/A
Matinecock PT    N/A     66 N/A N/A S1          N/A
Farmingdale    MOCLDY    62  48  60 SW7       29.84R
MacArthur/ISP  CLOUDY    62  49  62 SW7       29.84R
Shirley        PTCLDY    60  51  72 S5        29.85S
Mt Sinai Harb    N/A    N/A N/A N/A S3          N/A
Westhampton    PTCLDY    59  49  69 SW3       29.86S
East Hampton     N/A     59  50  72 CALM      29.84R
Montauk        NOT AVBL
$$

NYZ052-065-067-240100-
HUDSON VALLEY

CITY           SKY/WX    TMP DP  RH WIND       PRES   REMARKS
White Plains   CLOUDY    62  52  69 CALM      29.83S
Larchmont Harb   N/A     63 N/A N/A S2          N/A
Croton O-T Hud   N/A     64 N/A N/A MISG        N/A
Newburgh       MOCLDY    63  54  72 CALM      29.85S
Montgomery     CLOUDY    61  54  77 CALM      29.83S
Poughkeepsie   CLOUDY    61  53  75 CALM      29.82S
Albany         CLOUDY    66  49  54 S5        29.82S
$$

NJZ001-105-106-008-010-013-015-019>022-104-240100-
NEW JERSEY

CITY           SKY/WX    TMP DP  RH WIND       PRES   REMARKS
Newark/Liberty CLOUDY    66  49  54 S3        29.83R
Teterboro      CLOUDY    67  49  52 CALM      29.82R
Caldwell       CLOUDY    67  49  52 CALM      29.84R
Somerville     CLOUDY    62  56  80 CALM      29.81F
Linden           N/A     65  49  55 CALM      29.83S
Perth Amboy      N/A     64 N/A N/A S5          N/A
Sussex         CLOUDY    61  53  75 CALM      29.85S
Andover          N/A     59  53  80 CALM      29.84S
Trenton        CLOUDY    63  54  72 N3        29.83F
Millville      LGT RAIN  61  54  77 E6        29.83R
Atlantic City  CLOUDY    60  48  64 NE7       29.83S
Wrightstown    PTCLDY    61  52  71 SE3       29.82S
Toms River     MOCLDY    61  50  67 CALM      29.85R
Belmar         CLOUDY    61  49  64 SE5       29.85S
$$

PAZ047>061-062-071-240100-
EASTERN PENNSYLVANIA

CITY           SKY/WX    TMP DP  RH WIND       PRES   REMARKS
Philadelphia   CLOUDY    64  51  62 E6        29.84S
Allentown      CLOUDY    65  51  60 SE3       29.83F
Scranton       CLOUDY    64  46  52 VRB3      29.82F
$$

CTZ002-004>006-009-010-012-RIZ004-006-007-MAZ004-011-015-240100-
SOUTHERN NEW ENGLAND
 IN CT

CITY           SKY/WX    TMP DP  RH WIND       PRES   REMARKS
Bradley INTL   CLOUDY    65  50  58 SE5       29.82S
Hartford       CLOUDY    65  54  67 CALM      29.82S
Danbury        CLOUDY    61  53  75 SW3       29.84S
Wtrbury/Oxford NOT AVBL
Bridgeport     CLOUDY    64  51  62 SW5       29.83R
Meriden        CLOUDY    65  55  70 CALM      29.83R
New Haven      CLOUDY    62  49  62 W6        29.83S
Chester          N/A     63  52  67 SW3       29.84R
Groton         CLOUDY    58  50  75 SW5       29.83R
Wilimantic     CLOUDY    66  55  67 CALM      29.82S

 IN RI

CITY           SKY/WX    TMP DP  RH WIND       PRES   REMARKS
Providence     CLOUDY    64  56  75 SE5       29.82S
Block Island   CLOUDY    59  50  72 SW9       29.84S
Westerly       CLOUDY    60  53  77 S5        29.84R
 IN MA

CITY           SKY/WX    TMP DP  RH WIND       PRES   REMARKS
Boston         MOCLDY    59  51  75 CALM      29.82S
Worcester      CLOUDY    61  47  59 W6        29.84S
Westfield      LGT RAIN  63  57  81 CALM      29.82R
Provincetown   CLOUDY    54  52  93 SW5       29.85R
Nantucket      MOCLDY    55  49  80 N7        29.83S
$$

ANZ330-335-338-340-345-350-353-355-240100-
COASTAL MARINE OBSERVATIONS


STATION/POSITION TIME  SKY/WX   TEMP    WIND        PRES    VSBY  WAVE
                                AIR SEA DIR/SP/G                  HT/PER
                 (UTC)          (F)     (DEG/KT/KT) (MB)    (MI)  (FT/S)
NY HARB ENTRANCE 2350            59 59  210/  2/  4 1010.4          3/ 7
20 S FIRE ISLAND 2350            57 57  210/  2/  2 1010.0          3/ 8
GREAT SOUTH BAY  2330            61 65  230/  8/  8   N/A
23 SSW MONTAUK P 2250            57 56              1010.8          4/ 7
15 E BARNEGAT LI 2330               58                N/A           3/ 7
HUDSON CANYON    2250            55 55  100/  6/  8 1010.4          4/ 7
KINGS POINT      2330            64 58  200/  6/  7 1010.0
EXECUTION ROCKS  2345            63                   N/A
CENTRAL LI SOUND NOT AVBL
EASTERN LI SOUND NOT AVBL
ROBBINS REEF     2330            64     170/  8/  9 1010.7
$$


>>>>>>>>>>>>>>>>>>>>>>>>>>>> KEY <<<<<<<<<<<<<<<<<<<<<<<<<<<
>                                                          <
>     SKY/WX - Sky Condition/Present Weather               <
>     TMP    - Temperature in Fahrenheit                   <
>     DP     - Dew Point in Fahrenheit                     <
>     RH     - Relative Humidity in Percent                <
>     WIND   - Direction (from) and Speed in MPH           <
>     PRES   - Mean Sea Level Pressure (inches of Hg)      <
>     WCI    - Wind Chill Index                            <
>     VSB    - VISIBILITY IN MILES                         <
>     HX     - HEAT INDEX                                  <
>     TC     - TEMPERATURE IN CELSIUS                      <
>     VRB    - VARIABLE WIND DIRECTION                     <
>                                                          <
>>>>>>>>>>>>>>>>>>>>>>>>>>>> KEY <<<<<<<<<<<<<<<<<<<<<<<<<<<




USA.gov is the U.S. government's official web portal to all federal, state and local government web resources and services.